Tracking 28081 objects as of 26-Sep-2023
HD Live streaming from Space Station
objects crossing your sky now

NOAA 17 DEB

Track NOAA 17 DEB now!
10-day predictions


NORAD ID: 49491
Int'l Code: 2002-032DV
Perigee: 637.4 km
Apogee: 722.3 km
Inclination: 98.7 °
Period: 98.2 minutes
Semi major axis: 7050 km
RCS: Unknown
Launch date: June 24, 2002
Source: United States (US)
Launch site: AIR FORCE WESTERN TEST RANGE (AFWTR)

Note: This is SATELLITE DEBRIS
Your satellite tracking list
Your tracking list is empty




NASA's NSSDC Master Catalog

Two Line Element Set (TLE):
1 49491U 02032DV  23267.93566616  .00049066  00000-0  86000-2 0  9997
2 49491  98.7415 256.8645 0060216  43.5617 317.0317 14.66348632133103
Source of the keplerian elements: AFSPC